Location: MAS Eagle Lake Observatory
(44.8103°N, 93.9397°W)
Time: 19:13:46
(UTC-05:00)

Tiangong 2 - Visible Passes

Search period start: 18 July 2018 00:00
Search period end: 28 July 2018 00:00
Orbit: 386 x 394 km, 42.8° (Epoch: 18 July)

Date Brightness Start Highest point End Pass type
(mag) Time Alt. Az. Time Alt. Az. Time Alt. Az.
18 Jul 1.4 22:30:04 10° W 22:33:09 48° SSW 22:34:18 31° SE visible
19 Jul 1.3 21:32:23 10° W 21:35:32 57° S 21:38:39 10° ESE visible
19 Jul 2.7 23:09:24 10° W 23:11:19 23° SW 23:11:19 23° SW visible
20 Jul 1.9 22:11:34 10° W 22:14:31 35° SSW 22:16:01 22° SE visible
21 Jul 3.2 22:51:15 10° WSW 22:53:03 16° SW 22:53:03 16° SW visible
22 Jul 2.6 21:53:10 10° W 21:55:48 24° SSW 21:57:47 14° SSE visible
24 Jul 3.4 21:35:03 10° WSW 21:36:59 15° SSW 21:38:55 10° S visible
